Terminal Aerodrome Forecast
Issued by NWS Memphis, TN

Home | Current Version | Previous Version | Text Only | Print | Product List | Glossary On
Versions: 1 2 3 4 5 6 7 8 9 10 11 12 13 14 15 16 17 18 19 20 21 22 23 24
000
FTUS44 KMEG 270800 AAA
TAFMEM
TAF AMD
KMEM 270850Z 2709/2806 00000KT P6SM FEW250
     FM271700 07005KT P6SM FEW050 SCT250
     FM280300 14003KT P6SM SKC=

USA.gov is the U.S. government's official web portal to all federal, state and local government web resources and services.